Tracking 27188 objects as of 1-Apr-2023
HD Live streaming from Space Station
objects crossing your sky now

STARLINK-3530

Track STARLINK-3530 now!
10-day predictions
STARLINK-3530 is classified as:


NORAD ID: 51730
Int'l Code: 2022-016S
Perigee: 545.9 km
Apogee: 547.9 km
Inclination: 53.2 °
Period: 95.4 minutes
Semi major axis: 6917 km
RCS: Unknown
Launch date: February 21, 2022
Source: United States (US)
Launch site: AIR FORCE EASTERN TEST RANGE (AFETR)
Your satellite tracking list
Your tracking list is empty




NASA's NSSDC Master Catalog

Two Line Element Set (TLE):
1 51730U 22016S   23091.18024994  .00000022  00000-0  19484-4 0  9993
2 51730  53.2164  98.2902 0001507 102.9139 257.2022 15.08834312 62561
Source of the keplerian elements: AFSPC